Sauk Centre, MN

6:57 AM CST on November 18, 2017 (GMT -0600)
Sauk Centre

Weather History for KD39 - January, 2013

Change the Weather History Date:

Wednesday, January 9, 2013

  Actual Average (KGHW) Record (KGHW)
Temperature  
Mean Temperature 24 °F -  
Max Temperature 32 °F 16 °F 48 °F (2012)
Min Temperature 15 °F -1 °F -27 °F (1973)
Degree Days  
Heating Degree Days 42    
Moisture  
Dew Point 20 °F    
Average Humidity 78    
Maximum Humidity 93    
Minimum Humidity 64    
Precipitation  
Precipitation 0.00 in - - ()
Sea Level Pressure  
Sea Level Pressure 30.12 in    
Wind  
Wind Speed 14 mph (WSW)    
Max Wind Speed 25 mph    
Max Gust Speed 33 mph    
Visibility 10 miles    
Events      
Averages and records for this station are not official NWS values.
T = Trace of Precipitation, MM = Missing Value Source: NWS Daily Summary

Daily Weather History Graph

Daily Weather History Graph

Search for Another Location

Airport or City:

Trip Planner

Search our weather history database for the weather conditions in past years. The results will help you decide how hot, cold, wet, or windy it might be!

Date:

Astronomy

Jan. 09, 2013 Rise Set
Actual Time 7:59 AM CST 4:55 PM CST
Civil Twilight 7:25 AM CST 5:28 PM CST
Nautical Twilight 6:48 AM CST 6:05 PM CST
Astronomical Twilight 6:12 AM CST 6:41 PM CST
Moon 5:39 AM CST (1/9) 2:57 PM CST (1/9)
Length of Visible Light 10h 03m
Length of Day
8h 55m
Waning Crescent, 6% of the Moon is Illuminated
Jan 9
Waning Crescent
Jan 11
New
Jan 18
First Quarter
Jan 26
Full
Feb 3
Last Quarter

Hourly Weather History & Observations

Time (CST) Temp. Windchill Dew Point Humidity Pressure Visibility Wind Dir Wind Speed Gust Speed Precip Events Conditions
12:15 AM 30.2 °F 21.9 °F 28.4 °F 93% 29.85 in 10.0 mi West 9.2 mph - N/A   Mostly Cloudy
12:35 AM 30.2 °F 21.3 °F 28.4 °F 93% 29.85 in 10.0 mi WSW 10.4 mph - N/A   Clear
12:55 AM 30.2 °F 20.2 °F 28.4 °F 93% 29.85 in 10.0 mi WSW 12.7 mph - N/A   Clear
1:15 AM 30.2 °F 18.5 °F 28.4 °F 93% 29.86 in 10.0 mi WSW 17.3 mph - N/A   Clear
1:35 AM 32.0 °F 20.1 °F 28.4 °F 87% 29.86 in 10.0 mi WSW 19.6 mph 27.6 mph N/A   Clear
1:55 AM 32.0 °F 20.1 °F 26.6 °F 80% 29.87 in 10.0 mi WSW 19.6 mph 26.5 mph N/A   Clear
2:15 AM 32.0 °F 20.5 °F 26.6 °F 80% 29.88 in 10.0 mi WSW 18.4 mph 27.6 mph N/A   Scattered Clouds
2:35 AM 32.0 °F 20.1 °F 26.6 °F 80% 29.89 in 10.0 mi WSW 19.6 mph 26.5 mph N/A   Scattered Clouds
2:55 AM 30.2 °F 16.2 °F 24.8 °F 80% 29.89 in 10.0 mi West 25.3 mph 28.8 mph N/A   Clear
3:15 AM 30.2 °F 17.4 °F 24.8 °F 80% 29.90 in 10.0 mi West 20.7 mph 28.8 mph N/A   Scattered Clouds
3:35 AM 30.2 °F 16.5 °F 24.8 °F 80% 29.91 in 10.0 mi West 24.2 mph 32.2 mph N/A   Scattered Clouds
3:55 AM 30.2 °F 17.1 °F 24.8 °F 80% 29.92 in 10.0 mi West 21.9 mph 33.4 mph N/A   Overcast
4:15 AM 30.2 °F 16.8 °F 23.0 °F 75% 29.94 in 10.0 mi West 23.0 mph 32.2 mph N/A   Overcast
4:35 AM 30.2 °F 17.4 °F 23.0 °F 75% 29.95 in 10.0 mi West 20.7 mph 31.1 mph N/A   Mostly Cloudy
4:55 AM 28.4 °F 16.2 °F 21.2 °F 74% 29.96 in 10.0 mi West 17.3 mph 28.8 mph N/A   Scattered Clouds
5:15 AM 28.4 °F 14.7 °F 21.2 °F 74% 29.97 in 10.0 mi West 21.9 mph 28.8 mph N/A   Clear
5:35 AM 28.4 °F 15.8 °F 21.2 °F 74% 29.99 in 10.0 mi West 18.4 mph 28.8 mph N/A   Clear
5:55 AM 28.4 °F 15.4 °F 21.2 °F 74% 30.00 in 10.0 mi West 19.6 mph 26.5 mph N/A   Clear
6:15 AM 26.6 °F 12.4 °F 19.4 °F 74% 30.02 in 10.0 mi West 21.9 mph 27.6 mph N/A   Clear
6:35 AM 26.6 °F 13.8 °F 19.4 °F 74% 30.03 in 10.0 mi West 17.3 mph 25.3 mph N/A   Clear
6:55 AM 26.6 °F 13.1 °F 19.4 °F 74% 30.05 in 10.0 mi West 19.6 mph 24.2 mph N/A   Clear
7:15 AM 26.6 °F 13.8 °F 19.4 °F 74% 30.06 in 10.0 mi West 17.3 mph 24.2 mph N/A   Clear
7:35 AM 26.6 °F 14.7 °F 19.4 °F 74% 30.08 in 10.0 mi West 15.0 mph - N/A   Clear
7:55 AM 24.8 °F 13.4 °F 19.4 °F 80% 30.10 in 10.0 mi West 12.7 mph - N/A   Clear
8:15 AM 24.8 °F 12.4 °F 17.6 °F 74% 30.11 in 10.0 mi WNW 15.0 mph - N/A   Clear
8:35 AM 23.0 °F 10.1 °F 17.6 °F 80% 30.12 in 10.0 mi WNW 15.0 mph - N/A   Clear
8:55 AM 24.8 °F 11.9 °F 17.6 °F 74% 30.13 in 10.0 mi WNW 16.1 mph 20.7 mph N/A   Clear
9:15 AM 24.8 °F 11.9 °F 17.6 °F 74% 30.13 in 10.0 mi WNW 16.1 mph - N/A   Clear
9:35 AM 24.8 °F 12.9 °F 17.6 °F 74% 30.14 in 10.0 mi WNW 13.8 mph - N/A   Clear
9:55 AM 24.8 °F 13.4 °F 17.6 °F 74% 30.14 in 10.0 mi WNW 12.7 mph 18.4 mph N/A   Clear
10:15 AM 26.6 °F 14.3 °F 17.6 °F 69% 30.15 in 10.0 mi WNW 16.1 mph - N/A   Clear
10:35 AM 26.6 °F 14.3 °F 17.6 °F 69% 30.14 in 10.0 mi NW 16.1 mph 23.0 mph N/A   Clear
10:55 AM 26.6 °F 15.7 °F 17.6 °F 69% 30.15 in 10.0 mi NW 12.7 mph - N/A   Clear
11:15 AM 26.6 °F 16.8 °F 19.4 °F 74% 30.15 in 10.0 mi WNW 10.4 mph - N/A   Clear
11:35 AM 26.6 °F 16.2 °F 19.4 °F 74% 30.16 in 10.0 mi WNW 11.5 mph - N/A   Clear
11:55 AM 26.6 °F 16.8 °F 17.6 °F 69% 30.19 in 10.0 mi WNW 10.4 mph - N/A   Clear
12:15 PM 26.6 °F 17.5 °F 19.4 °F 74% 30.21 in 10.0 mi West 9.2 mph - N/A   Clear
12:35 PM 28.4 °F 18.5 °F 17.6 °F 64% 30.21 in 10.0 mi West 11.5 mph - N/A   Clear
12:55 PM 28.4 °F 19.1 °F 19.4 °F 69% 30.24 in 10.0 mi SW 10.4 mph - N/A   Clear
1:15 PM 28.4 °F 19.1 °F 19.4 °F 69% 30.24 in 10.0 mi WSW 10.4 mph - N/A   Clear
1:35 PM 28.4 °F 21.2 °F 17.6 °F 64% 30.24 in 10.0 mi SW 6.9 mph - N/A   Clear
1:55 PM 26.6 °F 18.2 °F 19.4 °F 74% 30.25 in 10.0 mi WSW 8.1 mph - N/A   Clear
2:15 PM 26.6 °F 17.5 °F 19.4 °F 74% 30.26 in 10.0 mi WSW 9.2 mph - N/A   Clear
2:35 PM 26.6 °F 17.5 °F 19.4 °F 74% 30.28 in 10.0 mi SW 9.2 mph - N/A   Clear
2:55 PM 26.6 °F 17.5 °F 19.4 °F 74% 30.27 in 10.0 mi WSW 9.2 mph - N/A   Clear
3:15 PM 26.6 °F 19.1 °F 19.4 °F 74% 30.29 in 10.0 mi SW 6.9 mph - N/A   Clear
3:35 PM 26.6 °F 18.2 °F 19.4 °F 74% 30.29 in 10.0 mi SW 8.1 mph - N/A   Scattered Clouds
3:55 PM 28.4 °F 22.2 °F 19.4 °F 69% 30.29 in 10.0 mi SW 5.8 mph - N/A   Mostly Cloudy
4:15 PM 28.4 °F 22.2 °F 19.4 °F 69% 30.28 in 10.0 mi SW 5.8 mph - N/A   Overcast
4:35 PM 26.6 °F - 19.4 °F 74% 30.27 in 10.0 mi Calm Calm - N/A   Overcast
4:55 PM 26.6 °F - 19.4 °F 74% 30.27 in 10.0 mi Calm Calm - N/A   Overcast
5:15 PM 23.0 °F 17.0 °F 17.6 °F 80% 30.27 in 10.0 mi South 4.6 mph - N/A   Scattered Clouds
5:35 PM 21.2 °F 13.6 °F 17.6 °F 86% 30.27 in 10.0 mi SSE 5.8 mph - N/A   Clear
5:55 PM 21.2 °F 14.9 °F 17.6 °F 86% 30.25 in 10.0 mi SE 4.6 mph - N/A   Clear
6:15 PM 21.2 °F 13.6 °F 17.6 °F 86% 30.24 in 10.0 mi SE 5.8 mph - N/A   Clear
6:35 PM 19.4 °F 12.8 °F 17.6 °F 93% 30.23 in 10.0 mi East 4.6 mph - N/A   Clear
6:55 PM 19.4 °F - 14.0 °F 80% 30.24 in 10.0 mi Calm Calm - N/A   Clear
7:15 PM 17.6 °F 12.3 °F 14.0 °F 86% 30.23 in 10.0 mi ESE 3.5 mph - N/A   Clear
7:35 PM 15.8 °F 7.2 °F 12.2 °F 86% 30.24 in 10.0 mi SE 5.8 mph - N/A   Clear
7:55 PM 17.6 °F 9.3 °F 14.0 °F 86% 30.23 in 10.0 mi SE 5.8 mph - N/A   Clear
8:35 PM 21.2 °F 9.5 °F 17.6 °F 86% 30.22 in 10.0 mi SE 11.5 mph - N/A   Clear
8:55 PM 21.2 °F 9.5 °F 17.6 °F 86% 30.21 in 10.0 mi SSE 11.5 mph - N/A   Clear
9:15 PM 23.0 °F 11.7 °F 17.6 °F 80% 30.20 in 10.0 mi SE 11.5 mph - N/A   Clear
9:35 PM 23.0 °F 11.1 °F 19.4 °F 86% 30.19 in 10.0 mi SSE 12.7 mph - N/A   Clear
9:55 PM 24.8 °F 13.4 °F 19.4 °F 80% 30.19 in 10.0 mi SE 12.7 mph 18.4 mph N/A   Clear
10:15 PM 23.0 °F 11.1 °F 19.4 °F 86% 30.17 in 10.0 mi SE 12.7 mph - N/A   Clear
10:35 PM 24.8 °F 14.0 °F 19.4 °F 80% 30.16 in 10.0 mi SSE 11.5 mph - N/A   Clear
10:55 PM 24.8 °F 14.0 °F 21.2 °F 86% 30.16 in 10.0 mi SSE 11.5 mph - N/A   Clear
11:15 PM 26.6 °F 16.2 °F 21.2 °F 80% 30.17 in 10.0 mi SSE 11.5 mph - N/A   Clear
11:35 PM 26.6 °F 16.8 °F 21.2 °F 80% 30.17 in 10.0 mi SE 10.4 mph - N/A   Clear
11:55 PM 26.6 °F 16.8 °F 21.2 °F 80% 30.17 in 10.0 mi SE 10.4 mph - N/A   Clear